Time,TemperatureF,DewpointF,PressureIn,WindDirection,WindDirectionDegrees,WindSpeedMPH,WindSpeedGustMPH,Humidity,HourlyPrecipIn,Conditions,Clouds,dailyrainin,SoftwareType,DateUTC
2013-11-08 00:01:00,29.0,23.9,29.81,WNW,303,4.0,7.0,81,0.00,,,0.43,Wunderground v.1.15,2013-11-08 05:01:00,
2013-11-08 00:02:00,29.0,23.9,29.81,North,353,1.0,7.0,81,0.00,,,0.43,Wunderground v.1.15,2013-11-08 05:02:00,
2013-11-08 00:03:00,28.9,23.8,29.80,NNW,346,4.0,7.0,81,0.00,,,0.43,Wunderground v.1.15,2013-11-08 05:03:00,
2013-11-08 00:05:00,28.9,23.8,29.80,NE,50,4.0,7.0,81,0.00,,,0.43,Wunderground v.1.15,2013-11-08 05:05:00,
2013-11-08 00:10:00,28.9,23.5,29.80,NE,34,2.0,3.0,80,0.00,,,0.43,Wunderground v.1.15,2013-11-08 05:10:00,
2013-11-08 00:14:00,28.8,23.4,29.80,WNW,297,1.0,4.0,80,0.00,,,0.43,Wunderground v.1.15,2013-11-08 05:14:00,
2013-11-08 00:19:00,28.5,22.8,29.80,NW,316,4.0,4.0,79,0.00,,,0.43,Wunderground v.1.15,2013-11-08 05:19:00,
2013-11-08 00:24:00,28.4,23.0,29.80,WNW,300,0.0,4.0,80,0.00,,,0.43,Wunderground v.1.15,2013-11-08 05:24:00,
2013-11-08 00:30:00,28.1,23.0,29.80,SW,233,1.0,1.0,81,0.00,,,0.43,Wunderground v.1.15,2013-11-08 05:30:00,
2013-11-08 00:35:00,27.9,22.8,29.80,NW,309,1.0,1.0,81,0.00,,,0.43,Wunderground v.1.15,2013-11-08 05:35:00,
2013-11-08 00:40:00,27.8,22.1,29.80,WNW,286,0.0,2.0,79,0.00,,,0.43,Wunderground v.1.15,2013-11-08 05:40:00,
2013-11-08 00:46:00,27.7,22.0,29.80,West,270,1.0,2.0,79,0.00,,,0.43,Wunderground v.1.15,2013-11-08 05:46:00,
2013-11-08 00:51:00,27.8,21.8,29.79,SW,224,0.0,3.0,78,0.00,,,0.43,Wunderground v.1.15,2013-11-08 05:51:00,
2013-11-08 00:57:00,27.8,21.5,29.79,NW,314,1.0,3.0,77,0.00,,,0.43,Wunderground v.1.15,2013-11-08 05:57:00,
2013-11-08 01:02:00,27.7,21.4,29.79,NE,50,2.0,2.0,77,0.00,,,0.43,Wunderground v.1.15,2013-11-08 06:02:00,
2013-11-08 01:07:00,27.8,21.5,29.79,West,269,1.0,3.0,77,0.00,,,0.43,Wunderground v.1.15,2013-11-08 06:07:00,
2013-11-08 01:12:00,27.7,21.4,29.79,NW,318,0.0,2.0,77,0.00,,,0.43,Wunderground v.1.15,2013-11-08 06:12:00,
2013-11-08 01:18:00,27.3,21.0,29.79,NE,48,0.0,2.0,77,0.00,,,0.43,Wunderground v.1.15,2013-11-08 06:18:00,
2013-11-08 01:23:00,27.3,21.3,29.79,NW,321,0.0,2.0,78,0.00,,,0.43,Wunderground v.1.15,2013-11-08 06:23:00,
2013-11-08 01:29:00,26.9,22.1,29.79,North,3,0.0,0.0,82,0.00,,,0.43,Wunderground v.1.15,2013-11-08 06:29:00,
2013-11-08 01:34:00,26.7,21.4,29.79,North,349,0.0,1.0,80,0.00,,,0.43,Wunderground v.1.15,2013-11-08 06:34:00,
2013-11-08 01:40:00,26.3,22.1,29.79,East,85,0.0,0.0,84,0.00,,,0.43,Wunderground v.1.15,2013-11-08 06:40:00,
2013-11-08 01:45:00,26.3,22.1,29.79,NNE,32,0.0,0.0,84,0.00,,,0.43,Wunderground v.1.15,2013-11-08 06:45:00,
2013-11-08 01:50:00,26.4,21.9,29.78,East,89,1.0,1.0,83,0.00,,,0.43,Wunderground v.1.15,2013-11-08 06:50:00,
2013-11-08 01:56:00,26.4,21.9,29.79,NNW,345,0.0,1.0,83,0.00,,,0.43,Wunderground v.1.15,2013-11-08 06:56:00,
2013-11-08 02:01:00,26.0,21.5,29.79,NW,314,0.0,1.0,83,0.00,,,0.43,Wunderground v.1.15,2013-11-08 07:01:00,
2013-11-08 02:06:00,25.7,21.5,29.79,NW,314,0.0,1.0,84,0.00,,,0.43,Wunderground v.1.15,2013-11-08 07:06:00,
2013-11-08 02:11:00,25.3,22.0,29.80,NW,314,0.0,0.0,87,0.00,,,0.43,Wunderground v.1.15,2013-11-08 07:11:00,
2013-11-08 02:16:00,24.9,21.8,29.80,NW,314,0.0,0.0,88,0.00,,,0.43,Wunderground v.1.15,2013-11-08 07:16:00,
2013-11-08 02:21:00,24.8,22.3,29.80,NW,314,0.0,0.0,90,0.00,,,0.43,Wunderground v.1.15,2013-11-08 07:21:00,
2013-11-08 02:26:00,24.5,22.0,29.80,NW,314,0.0,0.0,90,0.00,,,0.43,Wunderground v.1.15,2013-11-08 07:26:00,
2013-11-08 02:31:00,24.2,21.7,29.80,NW,314,0.0,0.0,90,0.00,,,0.43,Wunderground v.1.15,2013-11-08 07:31:00,
2013-11-08 02:36:00,24.0,21.8,29.80,NW,314,0.0,0.0,91,0.00,,,0.43,Wunderground v.1.15,2013-11-08 07:36:00,
2013-11-08 02:41:00,23.9,21.9,29.79,NW,314,0.0,1.0,92,0.00,,,0.43,Wunderground v.1.15,2013-11-08 07:41:00,
2013-11-08 02:46:00,23.7,21.7,29.80,NW,314,0.0,1.0,92,0.00,,,0.43,Wunderground v.1.15,2013-11-08 07:46:00,
2013-11-08 02:51:00,23.6,21.4,29.80,NW,314,0.0,0.0,91,0.00,,,0.43,Wunderground v.1.15,2013-11-08 07:51:00,
2013-11-08 02:56:00,23.4,21.4,29.80,NW,314,0.0,0.0,92,0.00,,,0.43,Wunderground v.1.15,2013-11-08 07:56:00,
2013-11-08 03:01:00,23.1,21.1,29.80,NNW,344,0.0,0.0,92,0.00,,,0.43,Wunderground v.1.15,2013-11-08 08:01:00,
2013-11-08 03:06:00,23.3,21.1,29.79,West,264,0.0,1.0,91,0.00,,,0.43,Wunderground v.1.15,2013-11-08 08:06:00,
2013-11-08 03:11:00,23.6,20.8,29.79,NW,315,4.0,4.0,89,0.00,,,0.43,Wunderground v.1.15,2013-11-08 08:11:00,
2013-11-08 03:16:00,24.4,21.1,29.79,WSW,238,0.0,4.0,87,0.00,,,0.43,Wunderground v.1.15,2013-11-08 08:16:00,
2013-11-08 03:21:00,24.4,21.1,29.80,WSW,243,0.0,1.0,87,0.00,,,0.43,Wunderground v.1.15,2013-11-08 08:21:00,
2013-11-08 03:26:00,24.1,21.3,29.80,WSW,247,0.0,1.0,89,0.00,,,0.43,Wunderground v.1.15,2013-11-08 08:26:00,
2013-11-08 03:31:00,24.1,20.8,29.80,WNW,284,0.0,0.0,87,0.00,,,0.43,Wunderground v.1.15,2013-11-08 08:31:00,
2013-11-08 03:36:00,23.9,21.1,29.80,NW,304,0.0,1.0,89,0.00,,,0.43,Wunderground v.1.15,2013-11-08 08:36:00,
2013-11-08 03:41:00,23.5,21.0,29.79,SW,233,0.0,1.0,90,0.00,,,0.43,Wunderground v.1.15,2013-11-08 08:41:00,
2013-11-08 03:46:00,23.4,21.2,29.80,SW,233,0.0,1.0,91,0.00,,,0.43,Wunderground v.1.15,2013-11-08 08:46:00,
2013-11-08 03:51:00,23.2,21.0,29.80,SW,233,0.0,0.0,91,0.00,,,0.00,Wunderground v.1.15,2013-11-08 08:51:00,
2013-11-08 03:56:00,23.0,21.0,29.80,SW,235,0.0,1.0,92,0.00,,,0.00,Wunderground v.1.15,2013-11-08 08:56:00,
2013-11-08 04:01:00,23.0,21.0,29.79,SW,235,0.0,0.0,92,0.00,,,0.00,Wunderground v.1.15,2013-11-08 09:01:00,
2013-11-08 04:06:00,22.8,21.1,29.79,SW,235,0.0,0.0,93,0.00,,,0.00,Wunderground v.1.15,2013-11-08 09:06:00,
2013-11-08 04:11:00,22.8,21.1,29.79,SW,235,0.0,0.0,93,0.00,,,0.00,Wunderground v.1.15,2013-11-08 09:11:00,
2013-11-08 04:16:00,22.7,21.0,29.79,North,349,0.0,1.0,93,0.00,,,0.00,Wunderground v.1.15,2013-11-08 09:16:00,
2013-11-08 04:21:00,22.7,20.7,29.79,North,349,0.0,0.0,92,0.00,,,0.00,Wunderground v.1.15,2013-11-08 09:21:00,
2013-11-08 04:26:00,22.3,20.3,29.80,North,349,0.0,0.0,92,0.00,,,0.00,Wunderground v.1.15,2013-11-08 09:26:00,
2013-11-08 04:31:00,22.2,20.5,29.79,North,349,0.0,0.0,93,0.00,,,0.00,Wunderground v.1.15,2013-11-08 09:31:00,
2013-11-08 04:36:00,22.4,20.9,29.80,North,349,0.0,0.0,94,0.00,,,0.00,Wunderground v.1.15,2013-11-08 09:36:00,
2013-11-08 04:41:00,22.2,20.5,29.80,North,349,0.0,0.0,93,0.00,,,0.00,Wunderground v.1.15,2013-11-08 09:41:00,
2013-11-08 04:46:00,22.2,20.7,29.79,North,349,0.0,0.0,94,0.00,,,0.00,Wunderground v.1.15,2013-11-08 09:46:00,
2013-11-08 04:51:00,22.5,21.3,29.80,North,349,0.0,0.0,95,0.00,,,0.00,Wunderground v.1.15,2013-11-08 09:51:00,
2013-11-08 04:56:00,22.7,21.5,29.79,NW,309,0.0,1.0,95,0.00,,,0.00,Wunderground v.1.15,2013-11-08 09:56:00,
2013-11-08 05:01:00,22.7,21.2,29.79,NW,309,0.0,0.0,94,0.00,,,0.00,Wunderground v.1.15,2013-11-08 10:01:00,
2013-11-08 05:06:00,22.5,21.0,29.79,NW,309,0.0,0.0,94,0.00,,,0.00,Wunderground v.1.15,2013-11-08 10:06:00,
2013-11-08 05:11:00,22.3,20.8,29.80,NW,309,0.0,0.0,94,0.00,,,0.00,Wunderground v.1.15,2013-11-08 10:11:00,
2013-11-08 05:16:00,22.3,20.8,29.80,NW,309,0.0,0.0,94,0.00,,,0.00,Wunderground v.1.15,2013-11-08 10:16:00,
2013-11-08 05:21:00,22.4,21.2,29.80,NW,309,0.0,0.0,95,0.00,,,0.00,Wunderground v.1.15,2013-11-08 10:21:00,
2013-11-08 05:26:00,22.6,21.4,29.80,ESE,107,0.0,1.0,95,0.00,,,0.00,Wunderground v.1.15,2013-11-08 10:26:00,
2013-11-08 05:31:00,22.7,21.5,29.80,ESE,108,0.0,0.0,95,0.00,,,0.00,Wunderground v.1.15,2013-11-08 10:31:00,
2013-11-08 05:36:00,22.8,21.6,29.80,NE,44,0.0,0.0,95,0.00,,,0.00,Wunderground v.1.15,2013-11-08 10:36:00,
2013-11-08 05:41:00,23.1,21.9,29.80,SE,142,0.0,0.0,95,0.00,,,0.00,Wunderground v.1.15,2013-11-08 10:41:00,
2013-11-08 05:46:00,23.4,22.2,29.80,SE,142,0.0,0.0,95,0.00,,,0.00,Wunderground v.1.15,2013-11-08 10:46:00,
2013-11-08 05:51:00,23.5,22.0,29.80,SE,142,0.0,0.0,94,0.00,,,0.00,Wunderground v.1.15,2013-11-08 10:51:00,
2013-11-08 05:56:00,23.8,22.3,29.80,SE,141,0.0,0.0,94,0.00,,,0.00,Wunderground v.1.15,2013-11-08 10:56:00,
2013-11-08 06:01:00,23.9,22.4,29.80,SE,141,0.0,0.0,94,0.00,,,0.00,Wunderground v.1.15,2013-11-08 11:01:00,
2013-11-08 06:06:00,24.0,22.5,29.81,SE,141,0.0,0.0,94,0.00,,,0.00,Wunderground v.1.15,2013-11-08 11:06:00,
2013-11-08 06:11:00,24.0,22.5,29.81,SE,141,0.0,0.0,94,0.00,,,0.00,Wunderground v.1.15,2013-11-08 11:11:00,
2013-11-08 06:16:00,24.2,22.7,29.81,SE,139,0.0,0.0,94,0.00,,,0.00,Wunderground v.1.15,2013-11-08 11:16:00,
2013-11-08 06:21:00,24.3,22.8,29.81,SE,128,0.0,0.0,94,0.00,,,0.00,Wunderground v.1.15,2013-11-08 11:21:00,
2013-11-08 06:26:00,24.6,23.1,29.81,SE,128,0.0,0.0,94,0.00,,,0.00,Wunderground v.1.15,2013-11-08 11:26:00,
2013-11-08 06:31:00,24.8,23.3,29.82,SE,128,0.0,0.0,94,0.00,,,0.00,Wunderground v.1.15,2013-11-08 11:31:00,
2013-11-08 06:36:00,25.1,23.6,29.82,SE,128,0.0,0.0,94,0.00,,,0.00,Wunderground v.1.15,2013-11-08 11:36:00,
2013-11-08 06:41:00,25.3,23.6,29.82,SE,128,0.0,0.0,93,0.00,,,0.00,Wunderground v.1.15,2013-11-08 11:41:00,
2013-11-08 06:46:00,25.5,24.0,29.82,SE,128,0.0,0.0,94,0.00,,,0.00,Wunderground v.1.15,2013-11-08 11:46:00,
2013-11-08 06:51:00,25.6,24.1,29.82,SE,128,0.0,0.0,94,0.00,,,0.00,Wunderground v.1.15,2013-11-08 11:51:00,
2013-11-08 06:56:00,25.7,24.2,29.82,SE,128,0.0,0.0,94,0.00,,,0.00,Wunderground v.1.15,2013-11-08 11:56:00,
2013-11-08 07:01:00,26.1,24.4,29.82,SE,125,0.0,0.0,93,0.00,,,0.00,Wunderground v.1.15,2013-11-08 12:01:00,
2013-11-08 07:06:00,26.3,24.8,29.83,SE,125,0.0,0.0,94,0.00,,,0.00,Wunderground v.1.15,2013-11-08 12:06:00,
2013-11-08 07:11:00,26.5,25.0,29.83,SE,125,0.0,0.0,94,0.00,,,0.00,Wunderground v.1.15,2013-11-08 12:11:00,
2013-11-08 07:16:00,26.7,24.9,29.82,SE,124,0.0,1.0,93,0.00,,,0.00,Wunderground v.1.15,2013-11-08 12:16:00,
2013-11-08 07:21:00,27.1,25.3,29.83,SE,124,0.0,1.0,93,0.00,,,0.00,Wunderground v.1.15,2013-11-08 12:21:00,
2013-11-08 07:26:00,27.8,25.2,29.83,SW,236,0.0,2.0,90,0.00,,,0.00,Wunderground v.1.15,2013-11-08 12:26:00,
2013-11-08 07:31:00,28.6,25.8,29.83,WNW,292,0.0,3.0,89,0.00,,,0.00,Wunderground v.1.15,2013-11-08 12:31:00,
2013-11-08 07:36:00,29.2,25.8,29.83,WSW,250,4.0,5.0,87,0.00,,,0.00,Wunderground v.1.15,2013-11-08 12:36:00,
2013-11-08 07:41:00,29.6,26.2,29.83,NW,315,3.0,4.0,87,0.00,,,0.00,Wunderground v.1.15,2013-11-08 12:41:00,
2013-11-08 07:46:00,30.0,26.0,29.83,WNW,302,3.0,7.0,85,0.00,,,0.00,Wunderground v.1.15,2013-11-08 12:46:00,
2013-11-08 07:51:00,30.3,26.3,29.83,NW,308,1.0,4.0,85,0.00,,,0.00,Wunderground v.1.15,2013-11-08 12:51:00,
2013-11-08 07:56:00,30.6,26.6,29.83,WNW,284,2.0,5.0,85,0.00,,,0.00,Wunderground v.1.15,2013-11-08 12:56:00,
2013-11-08 08:01:00,30.9,27.2,29.83,NW,305,0.0,2.0,86,0.00,,,0.00,Wunderground v.1.15,2013-11-08 13:01:00,
2013-11-08 08:06:00,31.5,27.5,29.83,North,359,2.0,3.0,85,0.00,,,0.00,Wunderground v.1.15,2013-11-08 13:06:00,
2013-11-08 08:11:00,32.0,28.0,29.84,NW,304,3.0,5.0,85,0.00,,,0.00,Wunderground v.1.15,2013-11-08 13:11:00,
2013-11-08 08:16:00,32.3,28.3,29.84,WNW,297,1.0,5.0,85,0.00,,,0.00,Wunderground v.1.15,2013-11-08 13:16:00,
2013-11-08 08:21:00,32.0,28.0,29.84,West,281,3.0,4.0,85,0.00,,,0.00,Wunderground v.1.15,2013-11-08 13:21:00,
2013-11-08 08:26:00,31.6,27.6,29.84,SW,232,3.0,7.0,85,0.00,,,0.00,Wunderground v.1.15,2013-11-08 13:26:00,
2013-11-08 08:31:00,31.4,27.4,29.84,WNW,289,1.0,5.0,85,0.00,,,0.00,Wunderground v.1.15,2013-11-08 13:31:00,
2013-11-08 08:36:00,31.6,27.6,29.84,NW,314,2.0,5.0,85,0.00,,,0.00,Wunderground v.1.15,2013-11-08 13:36:00,
2013-11-08 08:41:00,31.7,28.0,29.84,WNW,294,2.0,4.0,86,0.00,,,0.00,Wunderground v.1.15,2013-11-08 13:41:00,
2013-11-08 08:46:00,31.7,28.0,29.84,NW,311,1.0,9.0,86,0.00,,,0.00,Wunderground v.1.15,2013-11-08 13:46:00,
2013-11-08 08:51:00,31.7,28.0,29.84,NW,310,3.0,5.0,86,0.00,,,0.00,Wunderground v.1.15,2013-11-08 13:51:00,
2013-11-08 08:56:00,31.7,28.0,29.84,WNW,288,0.0,5.0,86,0.00,,,0.00,Wunderground v.1.15,2013-11-08 13:56:00,
2013-11-08 09:01:00,31.8,28.1,29.84,WNW,288,1.0,2.0,86,0.00,,,0.00,Wunderground v.1.15,2013-11-08 14:01:00,
2013-11-08 09:06:00,31.9,28.5,29.84,West,266,0.0,3.0,87,0.00,,,0.00,Wunderground v.1.15,2013-11-08 14:06:00,
2013-11-08 09:11:00,32.0,28.6,29.84,SSW,212,3.0,3.0,87,0.00,,,0.00,Wunderground v.1.15,2013-11-08 14:11:00,
2013-11-08 09:16:00,32.2,28.8,29.84,NW,319,1.0,7.0,87,0.00,,,0.00,Wunderground v.1.15,2013-11-08 14:16:00,
2013-11-08 09:21:00,32.4,29.0,29.84,WNW,282,0.0,5.0,87,0.00,,,0.00,Wunderground v.1.15,2013-11-08 14:21:00,
2013-11-08 09:26:00,32.6,29.2,29.84,West,260,0.0,5.0,87,0.00,,,0.00,Wunderground v.1.15,2013-11-08 14:26:00,
2013-11-08 09:31:00,32.6,28.9,29.84,NNW,328,3.0,7.0,86,0.00,,,0.00,Wunderground v.1.15,2013-11-08 14:31:00,
2013-11-08 09:36:00,32.5,28.8,29.84,NW,309,0.0,7.0,86,0.00,,,0.00,Wunderground v.1.15,2013-11-08 14:36:00,
2013-11-08 09:41:00,32.6,29.2,29.84,WNW,288,1.0,3.0,87,0.00,,,0.00,Wunderground v.1.15,2013-11-08 14:41:00,
2013-11-08 09:46:00,32.7,29.0,29.84,SSW,208,2.0,5.0,86,0.00,,,0.00,Wunderground v.1.15,2013-11-08 14:46:00,
2013-11-08 09:51:00,32.9,29.5,29.83,WNW,294,2.0,5.0,87,0.00,,,0.00,Wunderground v.1.15,2013-11-08 14:51:00,
2013-11-08 09:56:00,33.1,29.1,29.83,NW,311,5.0,8.0,85,0.00,,,0.00,Wunderground v.1.15,2013-11-08 14:56:00,
2013-11-08 10:01:00,33.2,29.5,29.83,NW,307,4.0,4.0,86,0.00,,,0.00,Wunderground v.1.15,2013-11-08 15:01:00,
2013-11-08 10:06:00,33.5,29.5,29.83,WNW,301,4.0,9.0,85,0.00,,,0.00,Wunderground v.1.15,2013-11-08 15:06:00,
2013-11-08 10:11:00,34.1,29.8,29.83,WNW,291,2.0,5.0,84,0.00,,,0.00,Wunderground v.1.15,2013-11-08 15:11:00,
2013-11-08 10:16:00,34.4,29.5,29.83,NNW,330,3.0,12.0,82,0.00,,,0.00,Wunderground v.1.15,2013-11-08 15:16:00,
2013-11-08 10:21:00,35.3,31.2,29.83,West,274,6.0,12.0,85,0.00,,,0.00,Wunderground v.1.15,2013-11-08 15:21:00,
2013-11-08 10:26:00,35.3,30.1,29.83,WNW,287,4.0,12.0,81,0.00,,,0.00,Wunderground v.1.15,2013-11-08 15:26:00,
2013-11-08 10:31:00,35.8,30.5,29.83,NE,41,3.0,7.0,81,0.00,,,0.00,Wunderground v.1.15,2013-11-08 15:31:00,
2013-11-08 10:36:00,35.7,29.8,29.83,WNW,299,6.0,10.0,79,0.00,,,0.00,Wunderground v.1.15,2013-11-08 15:36:00,
2013-11-08 10:41:00,35.8,29.3,29.83,WNW,300,8.0,10.0,77,0.00,,,0.00,Wunderground v.1.15,2013-11-08 15:41:00,
2013-11-08 10:46:00,35.4,28.9,29.83,NW,322,6.0,12.0,77,0.00,,,0.00,Wunderground v.1.15,2013-11-08 15:46:00,
2013-11-08 10:51:00,35.6,29.7,29.83,NW,315,5.0,9.0,79,0.00,,,0.00,Wunderground v.1.15,2013-11-08 15:51:00,
2013-11-08 10:56:00,36.3,29.8,29.83,NW,321,3.0,14.0,77,0.00,,,0.00,Wunderground v.1.15,2013-11-08 15:56:00,
2013-11-08 11:01:00,36.7,30.2,29.83,NW,311,9.0,9.0,77,0.00,,,0.00,Wunderground v.1.15,2013-11-08 16:01:00,
2013-11-08 11:06:00,37.3,29.8,29.82,North,10,1.0,16.0,74,0.00,,,0.00,Wunderground v.1.15,2013-11-08 16:06:00,
2013-11-08 11:11:00,36.8,29.0,29.82,NW,315,5.0,6.0,73,0.00,,,0.00,Wunderground v.1.15,2013-11-08 16:11:00,
2013-11-08 11:16:00,36.7,27.8,29.82,North,352,4.0,17.0,70,0.00,,,0.00,Wunderground v.1.15,2013-11-08 16:16:00,
2013-11-08 11:21:00,36.8,27.9,29.83,NW,304,7.0,11.0,70,0.00,,,0.00,Wunderground v.1.15,2013-11-08 16:21:00,
2013-11-08 11:26:00,37.2,28.0,29.82,WNW,299,6.0,12.0,69,0.00,,,0.00,Wunderground v.1.15,2013-11-08 16:26:00,
2013-11-08 11:31:00,36.7,27.5,29.82,SW,222,11.0,12.0,69,0.00,,,0.00,Wunderground v.1.15,2013-11-08 16:31:00,
2013-11-08 11:36:00,36.2,27.7,29.82,WSW,258,4.0,12.0,71,0.00,,,0.00,Wunderground v.1.15,2013-11-08 16:36:00,
2013-11-08 11:41:00,36.2,28.4,29.82,NW,304,2.0,4.0,73,0.00,,,0.00,Wunderground v.1.15,2013-11-08 16:41:00,
2013-11-08 11:46:00,36.5,29.0,29.82,West,267,6.0,7.0,74,0.00,,,0.00,Wunderground v.1.15,2013-11-08 16:46:00,
2013-11-08 11:51:00,36.3,27.8,29.82,WNW,286,4.0,13.0,71,0.00,,,0.00,Wunderground v.1.15,2013-11-08 16:51:00,
2013-11-08 11:56:00,36.1,27.3,29.82,WNW,283,5.0,13.0,70,0.00,,,0.00,Wunderground v.1.15,2013-11-08 16:56:00,
2013-11-08 12:01:00,37.1,27.9,29.81,West,275,2.0,7.0,69,0.00,,,0.00,Wunderground v.1.15,2013-11-08 17:01:00,
2013-11-08 12:06:00,37.4,27.4,29.81,North,353,2.0,11.0,67,0.00,,,0.00,Wunderground v.1.15,2013-11-08 17:06:00,
2013-11-08 12:11:00,37.3,26.2,29.81,West,280,5.0,8.0,64,0.00,,,0.00,Wunderground v.1.15,2013-11-08 17:11:00,
2013-11-08 12:16:00,36.8,26.5,29.81,West,266,2.0,9.0,66,0.00,,,0.00,Wunderground v.1.15,2013-11-08 17:16:00,
2013-11-08 12:21:00,36.3,24.9,29.81,West,260,7.0,8.0,63,0.00,,,0.00,Wunderground v.1.15,2013-11-08 17:21:00,
2013-11-08 12:26:00,36.1,23.5,29.81,SW,223,1.0,14.0,60,0.00,,,0.00,Wunderground v.1.15,2013-11-08 17:26:00,
2013-11-08 12:31:00,35.8,23.3,29.82,WNW,288,11.0,11.0,60,0.00,,,0.00,Wunderground v.1.15,2013-11-08 17:31:00,
2013-11-08 12:36:00,35.6,23.1,29.82,WSW,242,9.0,13.0,60,0.00,,,0.00,Wunderground v.1.15,2013-11-08 17:36:00,
2013-11-08 12:41:00,35.5,23.0,29.82,NW,306,8.0,13.0,60,0.00,,,0.00,Wunderground v.1.15,2013-11-08 17:41:00,
2013-11-08 12:46:00,35.0,25.5,29.82,NW,307,7.0,13.0,68,0.00,,,0.00,Wunderground v.1.15,2013-11-08 17:46:00,
2013-11-08 12:51:00,34.4,26.3,29.82,North,353,4.0,10.0,72,0.00,,,0.01,Wunderground v.1.15,2013-11-08 17:51:00,
2013-11-08 12:56:00,34.4,27.0,29.83,NW,304,2.0,11.0,74,0.00,,,0.01,Wunderground v.1.15,2013-11-08 17:56:00,
2013-11-08 13:01:00,35.2,27.7,29.83,NW,313,8.0,10.0,74,0.00,,,0.01,Wunderground v.1.15,2013-11-08 18:01:00,
2013-11-08 13:06:00,34.8,27.4,29.83,NW,306,3.0,14.0,74,0.00,,,0.01,Wunderground v.1.15,2013-11-08 18:06:00,
2013-11-08 13:11:00,35.1,28.0,29.83,West,259,3.0,11.0,75,0.00,,,0.01,Wunderground v.1.15,2013-11-08 18:11:00,
2013-11-08 13:16:00,35.6,27.1,29.83,WSW,247,8.0,12.0,71,0.00,,,0.01,Wunderground v.1.15,2013-11-08 18:16:00,
2013-11-08 13:21:00,35.5,24.1,29.83,WNW,297,16.0,21.0,63,0.00,,,0.01,Wunderground v.1.15,2013-11-08 18:21:00,
2013-11-08 13:26:00,35.0,23.3,29.84,SSW,195,2.0,21.0,62,0.00,,,0.01,Wunderground v.1.15,2013-11-08 18:26:00,
2013-11-08 13:31:00,34.8,22.7,29.84,NW,318,3.0,11.0,61,0.00,,,0.01,Wunderground v.1.15,2013-11-08 18:31:00,
2013-11-08 13:36:00,34.9,22.4,29.84,NW,307,2.0,18.0,60,0.00,,,0.01,Wunderground v.1.15,2013-11-08 18:36:00,
2013-11-08 13:41:00,34.7,22.6,29.84,NNW,334,4.0,16.0,61,0.00,,,0.01,Wunderground v.1.15,2013-11-08 18:41:00,
2013-11-08 13:46:00,34.5,22.4,29.84,West,273,10.0,16.0,61,0.00,,,0.01,Wunderground v.1.15,2013-11-08 18:46:00,
2013-11-08 13:51:00,34.4,22.7,29.84,NW,322,4.0,8.0,62,0.00,,,0.01,Wunderground v.1.15,2013-11-08 18:51:00,
2013-11-08 13:56:00,34.3,23.0,29.84,WNW,292,9.0,18.0,63,0.00,,,0.01,Wunderground v.1.15,2013-11-08 18:56:00,
2013-11-08 14:01:00,34.0,22.7,29.85,WNW,302,8.0,15.0,63,0.00,,,0.01,Wunderground v.1.15,2013-11-08 19:01:00,
2013-11-08 14:06:00,33.8,23.3,29.85,West,273,8.0,16.0,65,0.00,,,0.01,Wunderground v.1.15,2013-11-08 19:06:00,
2013-11-08 14:11:00,33.6,23.4,29.85,WNW,302,13.0,14.0,66,0.00,,,0.01,Wunderground v.1.15,2013-11-08 19:11:00,
2013-11-08 14:16:00,33.3,23.5,29.85,NW,317,13.0,16.0,67,0.00,,,0.01,Wunderground v.1.15,2013-11-08 19:16:00,
2013-11-08 14:21:00,33.1,23.3,29.86,WNW,295,5.0,15.0,67,0.00,,,0.01,Wunderground v.1.15,2013-11-08 19:21:00,
2013-11-08 14:26:00,33.0,23.2,29.86,NW,304,9.0,15.0,67,0.00,,,0.01,Wunderground v.1.15,2013-11-08 19:26:00,
2013-11-08 14:31:00,32.6,23.2,29.87,WNW,283,9.0,19.0,68,0.00,,,0.01,Wunderground v.1.15,2013-11-08 19:31:00,
2013-11-08 14:36:00,32.4,23.0,29.87,NW,320,15.0,19.0,68,0.00,,,0.01,Wunderground v.1.15,2013-11-08 19:36:00,
2013-11-08 14:41:00,32.4,22.7,29.87,North,353,1.0,14.0,67,0.00,,,0.01,Wunderground v.1.15,2013-11-08 19:41:00,
2013-11-08 14:46:00,32.4,22.7,29.88,SSE,162,1.0,18.0,67,0.00,,,0.01,Wunderground v.1.15,2013-11-08 19:46:00,
2013-11-08 14:51:00,32.3,22.2,29.88,WSW,257,3.0,14.0,66,0.00,,,0.01,Wunderground v.1.15,2013-11-08 19:51:00,
2013-11-08 14:56:00,32.3,22.6,29.88,WNW,297,2.0,14.0,67,0.00,,,0.01,Wunderground v.1.15,2013-11-08 19:56:00,
2013-11-08 15:01:00,32.2,22.1,29.88,NW,304,7.0,12.0,66,0.00,,,0.01,Wunderground v.1.15,2013-11-08 20:01:00,
2013-11-08 15:06:00,32.2,22.1,29.89,NNW,342,4.0,12.0,66,0.00,,,0.01,Wunderground v.1.15,2013-11-08 20:06:00,
2013-11-08 15:11:00,32.2,22.1,29.89,West,276,4.0,12.0,66,0.00,,,0.01,Wunderground v.1.15,2013-11-08 20:11:00,
2013-11-08 15:16:00,32.1,22.0,29.89,North,349,3.0,16.0,66,0.00,,,0.01,Wunderground v.1.15,2013-11-08 20:16:00,
2013-11-08 15:21:00,32.0,21.6,29.89,WNW,291,8.0,21.0,65,0.00,,,0.01,Wunderground v.1.15,2013-11-08 20:21:00,
2013-11-08 15:26:00,32.0,21.6,29.89,NNW,335,4.0,21.0,65,0.00,,,0.01,Wunderground v.1.15,2013-11-08 20:26:00,
2013-11-08 15:31:00,31.9,21.5,29.90,West,276,3.0,10.0,65,0.00,,,0.01,Wunderground v.1.15,2013-11-08 20:31:00,
2013-11-08 15:36:00,31.8,21.7,29.90,NW,311,0.0,10.0,66,0.00,,,0.01,Wunderground v.1.15,2013-11-08 20:36:00,
2013-11-08 15:41:00,31.7,21.3,29.90,NW,313,6.0,9.0,65,0.00,,,0.01,Wunderground v.1.15,2013-11-08 20:41:00,
2013-11-08 15:46:00,31.7,21.3,29.90,NNW,333,1.0,9.0,65,0.00,,,0.01,Wunderground v.1.15,2013-11-08 20:46:00,
2013-11-08 15:51:00,31.9,21.5,29.90,WNW,299,3.0,12.0,65,0.00,,,0.01,Wunderground v.1.15,2013-11-08 20:51:00,
2013-11-08 15:56:00,31.7,20.9,29.91,WNW,300,3.0,13.0,64,0.00,,,0.01,Wunderground v.1.15,2013-11-08 20:56:00,
2013-11-08 16:01:00,31.6,21.2,29.91,WSW,252,7.0,9.0,65,0.00,,,0.01,Wunderground v.1.15,2013-11-08 21:01:00,
2013-11-08 16:06:00,31.2,21.2,29.91,West,276,2.0,17.0,66,0.00,,,0.01,Wunderground v.1.15,2013-11-08 21:06:00,
2013-11-08 16:11:00,31.0,21.0,29.92,NW,305,2.0,7.0,66,0.00,,,0.01,Wunderground v.1.15,2013-11-08 21:11:00,
2013-11-08 16:16:00,30.9,21.2,29.92,WSW,238,3.0,12.0,67,0.00,,,0.01,Wunderground v.1.15,2013-11-08 21:16:00,
2013-11-08 16:21:00,30.8,21.1,29.92,WNW,301,9.0,9.0,67,0.00,,,0.01,Wunderground v.1.15,2013-11-08 21:21:00,
2013-11-08 16:26:00,30.7,21.0,29.92,NNE,33,1.0,9.0,67,0.00,,,0.01,Wunderground v.1.15,2013-11-08 21:26:00,
2013-11-08 16:31:00,30.5,20.8,29.92,WNW,298,3.0,13.0,67,0.00,,,0.01,Wunderground v.1.15,2013-11-08 21:31:00,
2013-11-08 16:36:00,30.5,20.8,29.92,West,269,2.0,13.0,67,0.00,,,0.01,Wunderground v.1.15,2013-11-08 21:36:00,
2013-11-08 16:41:00,30.5,21.2,29.93,WSW,257,5.0,6.0,68,0.00,,,0.01,Wunderground v.1.15,2013-11-08 21:41:00,
2013-11-08 16:46:00,30.5,21.2,29.92,NNW,334,4.0,14.0,68,0.00,,,0.01,Wunderground v.1.15,2013-11-08 21:46:00,
2013-11-08 16:51:00,30.4,21.1,29.92,West,273,3.0,6.0,68,0.00,,,0.01,Wunderground v.1.15,2013-11-08 21:51:00,
2013-11-08 16:56:00,30.3,21.0,29.93,WNW,290,2.0,8.0,68,0.00,,,0.01,Wunderground v.1.15,2013-11-08 21:56:00,
2013-11-08 17:01:00,30.2,21.2,29.93,NW,321,3.0,9.0,69,0.00,,,0.01,Wunderground v.1.15,2013-11-08 22:01:00,
2013-11-08 17:06:00,30.2,20.9,29.93,North,7,4.0,9.0,68,0.00,,,0.01,Wunderground v.1.15,2013-11-08 22:06:00,
2013-11-08 17:11:00,30.2,20.6,29.94,NW,308,2.0,14.0,67,0.00,,,0.01,Wunderground v.1.15,2013-11-08 22:11:00,
2013-11-08 17:16:00,30.1,20.5,29.94,WNW,303,2.0,14.0,67,0.00,,,0.01,Wunderground v.1.15,2013-11-08 22:16:00,
2013-11-08 17:21:00,30.2,20.9,29.94,WNW,287,2.0,10.0,68,0.00,,,0.01,Wunderground v.1.15,2013-11-08 22:21:00,
2013-11-08 17:26:00,30.0,20.7,29.94,WNW,295,4.0,10.0,68,0.00,,,0.01,Wunderground v.1.15,2013-11-08 22:26:00,
2013-11-08 17:31:00,30.0,20.7,29.95,West,266,1.0,12.0,68,0.00,,,0.01,Wunderground v.1.15,2013-11-08 22:31:00,
2013-11-08 17:36:00,30.0,20.7,29.95,NW,315,2.0,13.0,68,0.00,,,0.01,Wunderground v.1.15,2013-11-08 22:36:00,
2013-11-08 17:41:00,29.9,20.6,29.95,NW,315,3.0,9.0,68,0.00,,,0.01,Wunderground v.1.15,2013-11-08 22:41:00,
2013-11-08 17:46:00,29.8,20.5,29.95,NW,310,1.0,11.0,68,0.00,,,0.01,Wunderground v.1.15,2013-11-08 22:46:00,
2013-11-08 17:51:00,29.8,20.9,29.95,WSW,250,1.0,10.0,69,0.00,,,0.01,Wunderground v.1.15,2013-11-08 22:51:00,
2013-11-08 17:56:00,29.9,21.0,29.96,NW,304,10.0,11.0,69,0.00,,,0.01,Wunderground v.1.15,2013-11-08 22:56:00,
2013-11-08 18:01:00,29.9,21.0,29.96,West,280,2.0,6.0,69,0.00,,,0.01,Wunderground v.1.15,2013-11-08 23:01:00,
2013-11-08 18:06:00,30.0,21.1,29.96,NW,310,4.0,7.0,69,0.00,,,0.01,Wunderground v.1.15,2013-11-08 23:06:00,
2013-11-08 18:11:00,30.0,21.1,29.96,South,188,7.0,8.0,69,0.00,,,0.01,Wunderground v.1.15,2013-11-08 23:11:00,
2013-11-08 18:16:00,30.0,21.1,29.96,WNW,292,0.0,8.0,69,0.00,,,0.01,Wunderground v.1.15,2013-11-08 23:16:00,
2013-11-08 18:21:00,30.1,21.2,29.96,West,260,4.0,9.0,69,0.00,,,0.01,Wunderground v.1.15,2013-11-08 23:21:00,
2013-11-08 18:26:00,30.1,21.2,29.96,NW,311,6.0,9.0,69,0.00,,,0.01,Wunderground v.1.15,2013-11-08 23:26:00,
2013-11-08 18:31:00,30.1,21.2,29.97,NW,309,4.0,11.0,69,0.00,,,0.01,Wunderground v.1.15,2013-11-08 23:31:00,
2013-11-08 18:36:00,30.0,21.1,29.97,WSW,252,3.0,11.0,69,0.00,,,0.01,Wunderground v.1.15,2013-11-08 23:36:00,
2013-11-08 18:41:00,30.0,21.1,29.97,West,260,6.0,13.0,69,0.00,,,0.01,Wunderground v.1.15,2013-11-08 23:41:00,
2013-11-08 18:46:00,30.1,21.5,29.97,WNW,296,3.0,13.0,70,0.00,,,0.01,Wunderground v.1.15,2013-11-08 23:46:00,
2013-11-08 18:51:00,30.1,21.5,29.98,NW,323,2.0,5.0,70,0.00,,,0.01,Wunderground v.1.15,2013-11-08 23:51:00,
2013-11-08 18:56:00,30.1,21.5,29.97,WNW,299,0.0,8.0,70,0.00,,,0.01,Wunderground v.1.15,2013-11-08 23:56:00,
2013-11-08 19:01:00,30.2,21.2,29.97,WNW,290,3.0,10.0,69,0.00,,,0.01,Wunderground v.1.15,2013-11-09 00:01:00,
2013-11-08 19:06:00,30.1,21.5,29.97,NW,306,1.0,11.0,70,0.00,,,0.01,Wunderground v.1.15,2013-11-09 00:06:00,
2013-11-08 19:11:00,30.2,21.2,29.98,NW,305,7.0,9.0,69,0.00,,,0.01,Wunderground v.1.15,2013-11-09 00:11:00,
2013-11-08 19:16:00,30.1,21.5,29.98,SW,226,9.0,9.0,70,0.00,,,0.01,Wunderground v.1.15,2013-11-09 00:16:00,
2013-11-08 19:21:00,30.2,21.6,29.98,WNW,295,8.0,12.0,70,0.00,,,0.01,Wunderground v.1.15,2013-11-09 00:21:00,
2013-11-08 19:26:00,30.2,21.6,29.98,NW,325,0.0,12.0,70,0.00,,,0.01,Wunderground v.1.15,2013-11-09 00:26:00,
2013-11-08 19:31:00,30.2,21.6,29.98,WNW,291,5.0,10.0,70,0.00,,,0.01,Wunderground v.1.15,2013-11-09 00:31:00,
2013-11-08 19:36:00,30.2,21.6,29.98,West,280,7.0,13.0,70,0.00,,,0.01,Wunderground v.1.15,2013-11-09 00:36:00,
2013-11-08 19:41:00,30.2,21.2,29.98,West,267,3.0,9.0,69,0.00,,,0.01,Wunderground v.1.15,2013-11-09 00:41:00,
2013-11-08 19:46:00,30.2,21.2,29.98,NW,321,4.0,12.0,69,0.00,,,0.01,Wunderground v.1.15,2013-11-09 00:46:00,
2013-11-08 19:51:00,30.1,21.5,29.98,WSW,255,3.0,10.0,70,0.00,,,0.01,Wunderground v.1.15,2013-11-09 00:51:00,
2013-11-08 19:56:00,30.1,21.2,29.99,West,271,3.0,10.0,69,0.00,,,0.01,Wunderground v.1.15,2013-11-09 00:56:00,
2013-11-08 20:01:00,30.1,20.8,29.98,WNW,295,3.0,4.0,68,0.00,,,0.01,Wunderground v.1.15,2013-11-09 01:01:00,
2013-11-08 20:06:00,30.0,20.7,29.99,NW,311,3.0,10.0,68,0.00,,,0.01,Wunderground v.1.15,2013-11-09 01:06:00,
2013-11-08 20:11:00,30.0,21.1,29.99,WNW,295,6.0,12.0,69,0.00,,,0.01,Wunderground v.1.15,2013-11-09 01:11:00,
2013-11-08 20:16:00,30.0,20.7,29.99,WNW,289,6.0,14.0,68,0.00,,,0.01,Wunderground v.1.15,2013-11-09 01:16:00,
2013-11-08 20:21:00,30.0,21.1,29.99,WNW,285,3.0,10.0,69,0.00,,,0.01,Wunderground v.1.15,2013-11-09 01:21:00,
2013-11-08 20:26:00,30.0,20.7,29.99,NNW,343,2.0,11.0,68,0.00,,,0.01,Wunderground v.1.15,2013-11-09 01:26:00,
2013-11-08 20:31:00,29.9,20.6,29.99,WNW,295,3.0,10.0,68,0.00,,,0.01,Wunderground v.1.15,2013-11-09 01:31:00,
2013-11-08 20:36:00,29.9,21.0,30.00,WNW,299,4.0,10.0,69,0.00,,,0.01,Wunderground v.1.15,2013-11-09 01:36:00,
2013-11-08 20:41:00,29.9,21.0,30.00,NW,325,3.0,11.0,69,0.00,,,0.01,Wunderground v.1.15,2013-11-09 01:41:00,
2013-11-08 20:46:00,29.9,21.0,30.00,West,279,7.0,12.0,69,0.00,,,0.01,Wunderground v.1.15,2013-11-09 01:46:00,
2013-11-08 20:51:00,29.8,21.2,30.01,WSW,257,7.0,7.0,70,0.00,,,0.01,Wunderground v.1.15,2013-11-09 01:51:00,
2013-11-08 20:56:00,29.8,21.2,30.01,NW,308,5.0,11.0,70,0.00,,,0.01,Wunderground v.1.15,2013-11-09 01:56:00,
2013-11-08 21:02:00,29.8,21.2,30.01,WSW,253,3.0,6.0,70,0.00,,,0.01,Wunderground v.1.15,2013-11-09 02:02:00,
2013-11-08 21:07:00,29.7,21.1,30.01,NW,315,2.0,6.0,70,0.00,,,0.01,Wunderground v.1.15,2013-11-09 02:07:00,
2013-11-08 21:12:00,29.7,21.1,30.01,WNW,301,9.0,11.0,70,0.00,,,0.01,Wunderground v.1.15,2013-11-09 02:12:00,
2013-11-08 21:17:00,29.7,21.4,30.01,NW,310,3.0,11.0,71,0.00,,,0.01,Wunderground v.1.15,2013-11-09 02:17:00,
2013-11-08 21:22:00,29.6,21.3,30.01,West,278,3.0,13.0,71,0.00,,,0.01,Wunderground v.1.15,2013-11-09 02:22:00,
2013-11-08 21:27:00,29.6,21.3,30.01,NW,310,10.0,14.0,71,0.00,,,0.01,Wunderground v.1.15,2013-11-09 02:27:00,
2013-11-08 21:32:00,29.6,21.3,30.01,West,272,5.0,12.0,71,0.00,,,0.01,Wunderground v.1.15,2013-11-09 02:32:00,
2013-11-08 21:37:00,29.5,21.3,30.01,WNW,302,6.0,12.0,71,0.00,,,0.01,Wunderground v.1.15,2013-11-09 02:37:00,
2013-11-08 21:42:00,29.5,21.3,30.01,WNW,297,2.0,7.0,71,0.00,,,0.01,Wunderground v.1.15,2013-11-09 02:42:00,
2013-11-08 21:47:00,29.5,21.3,30.01,West,274,4.0,13.0,71,0.00,,,0.01,Wunderground v.1.15,2013-11-09 02:47:00,
2013-11-08 21:52:00,29.5,21.3,30.01,WSW,250,1.0,7.0,71,0.00,,,0.01,Wunderground v.1.15,2013-11-09 02:52:00,
2013-11-08 21:57:00,29.4,21.2,30.02,WNW,288,3.0,12.0,71,0.00,,,0.01,Wunderground v.1.15,2013-11-09 02:57:00,
2013-11-08 22:02:00,29.4,21.5,30.01,WSW,238,2.0,4.0,72,0.00,,,0.01,Wunderground v.1.15,2013-11-09 03:02:00,
2013-11-08 22:07:00,29.4,21.2,30.02,NW,309,1.0,8.0,71,0.00,,,0.01,Wunderground v.1.15,2013-11-09 03:07:00,
2013-11-08 22:12:00,29.4,21.2,30.01,SSW,193,2.0,7.0,71,0.00,,,0.01,Wunderground v.1.15,2013-11-09 03:12:00,
2013-11-08 22:17:00,29.3,21.1,30.02,NW,309,7.0,11.0,71,0.00,,,0.01,Wunderground v.1.15,2013-11-09 03:17:00,
2013-11-08 22:22:00,29.3,21.1,30.02,NW,320,2.0,11.0,71,0.00,,,0.01,Wunderground v.1.15,2013-11-09 03:22:00,
2013-11-08 22:27:00,29.3,21.4,30.01,West,260,2.0,11.0,72,0.00,,,0.01,Wunderground v.1.15,2013-11-09 03:27:00,
2013-11-08 22:32:00,29.3,21.1,30.01,NW,311,1.0,11.0,71,0.00,,,0.01,Wunderground v.1.15,2013-11-09 03:32:00,
2013-11-08 22:37:00,29.3,21.1,30.01,WNW,284,6.0,11.0,71,0.00,,,0.01,Wunderground v.1.15,2013-11-09 03:37:00,
2013-11-08 22:42:00,29.3,21.1,30.02,West,275,1.0,11.0,71,0.00,,,0.01,Wunderground v.1.15,2013-11-09 03:42:00,
2013-11-08 22:47:00,29.3,21.1,30.02,NW,305,6.0,11.0,71,0.00,,,0.01,Wunderground v.1.15,2013-11-09 03:47:00,
2013-11-08 22:52:00,29.4,21.2,30.02,NNW,328,6.0,10.0,71,0.00,,,0.01,Wunderground v.1.15,2013-11-09 03:52:00,
2013-11-08 22:57:00,29.4,21.2,30.02,WNW,283,2.0,10.0,71,0.00,,,0.01,Wunderground v.1.15,2013-11-09 03:57:00,
2013-11-08 23:02:00,29.3,21.1,30.02,NW,309,3.0,5.0,71,0.00,,,0.01,Wunderground v.1.15,2013-11-09 04:02:00,
2013-11-08 23:07:00,29.3,21.1,30.01,WNW,299,3.0,8.0,71,0.00,,,0.01,Wunderground v.1.15,2013-11-09 04:07:00,
2013-11-08 23:12:00,29.3,21.1,30.02,NW,304,3.0,5.0,71,0.00,,,0.01,Wunderground v.1.15,2013-11-09 04:12:00,
2013-11-08 23:17:00,29.3,21.1,30.01,NW,307,2.0,10.0,71,0.00,,,0.01,Wunderground v.1.15,2013-11-09 04:17:00,
2013-11-08 23:22:00,29.3,21.4,30.02,WSW,251,4.0,6.0,72,0.00,,,0.01,Wunderground v.1.15,2013-11-09 04:22:00,
2013-11-08 23:27:00,29.3,21.1,30.02,NNW,344,3.0,7.0,71,0.00,,,0.01,Wunderground v.1.15,2013-11-09 04:27:00,
2013-11-08 23:32:00,29.3,21.1,30.02,WNW,283,3.0,16.0,71,0.00,,,0.01,Wunderground v.1.15,2013-11-09 04:32:00,
2013-11-08 23:37:00,29.3,21.1,30.02,West,277,6.0,16.0,71,0.00,,,0.01,Wunderground v.1.15,2013-11-09 04:37:00,
2013-11-08 23:42:00,29.4,21.2,30.02,NW,316,4.0,8.0,71,0.00,,,0.01,Wunderground v.1.15,2013-11-09 04:42:00,
2013-11-08 23:47:00,29.4,21.2,30.02,West,271,3.0,13.0,71,0.00,,,0.01,Wunderground v.1.15,2013-11-09 04:47:00,
2013-11-08 23:52:00,29.4,21.2,30.02,WSW,252,1.0,7.0,71,0.00,,,0.01,Wunderground v.1.15,2013-11-09 04:52:00,
2013-11-08 23:57:00,29.4,21.2,30.02,WSW,251,3.0,14.0,71,0.00,,,0.01,Wunderground v.1.15,2013-11-09 04:57:00,